Weather in Gybdan

Russia / Udmurt Republic     56°33′36″N   51°37′42″E
temp.,
°C
wind,
m/s
gust,
m/s
humid.,
%
clouds,
%
prec.,
mm/h
press.,
hPa
HPBL,
m
10 may, mon
mon1001:00+14se4126129 0.0 1015257
04:00+14se386399 0.0 1017141
07:00+15se266492 0.0 1018160
10:00+17ssw1262100 0.0 1020131
13:00+21e234686 0.0 1020778
16:00+23sse3336100 0.0 10202265
19:00+19e115684 0.0 102114
22:00+16nne1257100 0.0 102318
11 may, tue
tue1101:00+13ne3982100 0.0 1024198
04:00+13ene3882100 0.0 1025151
07:00+15nne2374100 0.0 1026125
10:00+20ne2352100 0.0 1026566
13:00+24e123728 0.0 10261685
16:00+25ese113231 0.0 10262465
19:00+21ese114977 0.0 102722
22:00+17ene236658 0.0 102871
12 may, wed
wed1201:00+14ne11731 0.0 102911
04:00+13ene22765 0.0 102910
07:00+17e12655 0.0 1029131
10:00+22ene23465 0.0 1029944
13:00+25se333758 0.0 10282418
16:00+23sse234047 0.0 10281319
19:00+22se11504 0.0 102811
22:00+17sse116054 0.0 102811
13 may, thu
thu1301:00+16se116368 0.0 102911
04:00+15ene116415 0.0 102911
07:00+18ese125952 0.0 1029115
10:00+21ese245639 0.0 1029388
13:00+25sse4437100 0.0 10282533
16:00+25s4435100 0.0 10272351
19:00+22ssw11535 0.0 102611
22:00+17ese21575 0.0 102611
14 may, fri
fri1401:00+15s22675 0.0 102723
04:00+14sse22715 0.0 102614
07:00+18s23605 0.0 1026130
10:00+23s34385 0.0 1026882
13:00+26s44336 0.0 10251558
16:00+26ssw4435100 0.0 10241587
19:00+22ssw2354100 0.0 102375
22:00+18s226288 0.0 102332